QPF
0.02 0.02 0.01 0.01 0.02 0.03 0.03 0.03 0.04 0.03 0.02 0.02 0.03 0.04 0.02 0.02 0.02 0.02 0.02 0.02 0.02 0.03 0.05 0.06 0.07 0.08 0.09 0.08 0.07 0.07 0.08 0.08 0.08 0.09 0.12 0.13 0.14 0.14
0.03 0.03 0.01 0.01 0.02 0.03 0.03 0.03 0.04 0.04 0.03 0.02 0.02 0.03 0.03 0.02 0.01 0.01 0.01 0.02 0.02 0.02 0.05 0.07 0.08 0.08 0.08 0.07 0.06 0.05 0.05 0.04 0.04 0.05 0.07 0.09 0.10 0.10
0.01 0.01 0.01 0.01 0.02 0.02 0.03 0.04 0.04 0.03 0.03 0.02 0.02 0.02 0.02 0.02 0.02 0.01 0.01 0.01 0.01 0.02 0.04 0.06 0.06 0.07 0.06 0.04 0.03 0.03 0.03 0.03 0.03 0.04 0.04 0.05 0.07 0.09
0.01 0.01 0.01 0.01 0.02 0.03 0.03 0.04 0.05 0.04 0.03 0.02 0.02 0.02 0.03 0.03 0.02 0.02 0.02 0.02 0.02 0.03 0.04 0.06 0.06 0.05 0.03 0.02 0.01 0.01 0.02 0.04 0.05 0.05 0.05 0.05 0.05 0.07
0.02 0.03 0.02 0.03 0.03 0.03 0.04 0.04 0.05 0.05 0.04 0.03 0.03 0.03 0.04 0.05 0.04 0.03 0.04 0.04 0.04 0.04 0.03 0.04 0.03 0.03 0.02 0.01 0.01 0.02 0.03 0.04 0.05 0.06 0.06 0.05 0.05 0.07
0.02 0.02 0.02 0.02 0.03 0.03 0.05 0.05 0.05 0.05 0.05 0.05 0.05 0.05 0.05 0.06 0.04 0.03 0.04 0.05 0.04 0.04 0.05 0.05 0.05 0.03 0.02 0.02 0.02 0.02 0.02 0.03 0.04 0.05 0.06 0.06 0.07 0.08
0.01 0.02 0.02 0.03 0.03 0.04 0.04 0.04 0.04 0.04 0.05 0.06 0.07 0.07 0.06 0.05 0.03 0.03 0.04 0.04 0.05 0.05 0.05 0.04 0.04 0.02 0.02 0.01 0.01 0.01 0.01 0.02 0.03 0.03 0.04 0.04 0.06 0.07
0.03 0.03 0.04 0.04 0.03 0.03 0.03 0.04 0.04 0.05 0.07 0.08 0.08 0.07 0.06 0.05 0.03 0.04 0.04 0.04 0.05 0.05 0.05 0.05 0.03 0.02 0.01 0.01 0.01 0.01 0.01 0.01 0.01 0.01 0.02 0.02 0.03 0.03
0.02 0.03 0.02 0.03 0.03 0.03 0.03 0.04 0.04 0.05 0.07 0.08 0.08 0.08 0.06 0.05 0.04 0.05 0.06 0.05 0.05 0.04 0.03 0.04 0.03 0.03 0.02 0.01 0.01 0.01 0.01 0.01 0.01 0.01 0.01 0.01 0.01 0.02
0.01 0.02 0.02 0.02 0.03 0.04 0.04 0.03 0.03 0.04 0.05 0.06 0.06 0.06 0.04 0.05 0.05 0.06 0.06 0.04 0.03 0.03 0.03 0.03 0.03 0.03 0.02 0.01 0.01 0.01 0.01 0.00 0.00 0.00 0.01 0.01 0.02 0.02
0.01 0.02 0.02 0.02 0.03 0.04 0.03 0.03 0.03 0.04 0.05 0.07 0.06 0.04 0.03 0.03 0.04 0.04 0.04 0.03 0.02 0.03 0.02 0.02 0.03 0.02 0.02 0.02 0.01 0.00 0.00 0.00 0.00 0.00 0.01 0.01 0.01 0.01
0.01 0.02 0.03 0.03 0.03 0.04 0.03 0.02 0.02 0.02 0.03 0.03 0.03 0.02 0.02 0.02 0.03 0.02 0.02 0.02 0.02 0.02 0.01 0.01 0.02 0.02 0.02 0.02 0.01 0.00 0.00 0.00 0.00 0.01 0.01 0.01 0.01 0.00
0.02 0.02 0.02 0.02 0.03 0.04 0.04 0.02 0.02 0.02 0.03 0.03 0.02 0.02 0.02 0.02 0.02 0.01 0.02 0.02 0.01 0.01 0.01 0.00 0.01 0.02 0.01 0.01 0.01 0.01 0.00 0.00 0.00 0.00 0.00 0.00 0.00 0.00
0.02 0.01 0.01 0.02 0.02 0.03 0.03 0.02 0.02 0.03 0.04 0.03 0.01 0.01 0.01 0.01 0.01 0.01 0.01 0.01 0.01 0.01 0.01 0.00 0.01 0.01 0.02 0.01 0.01 0.01 0.01 0.00 0.00 0.00 0.00 0.00 0.00 0.00
0.01 0.01 0.01 0.01 0.02 0.02 0.02 0.02 0.02 0.03 0.03 0.02 0.01 0.01 0.01 0.01 0.01 0.00 0.00 0.00 0.00 0.00 0.00 0.01 0.01 0.01 0.02 0.01 0.01 0.01 0.01 0.00 0.00 0.00 0.00 0.00 0.00 0.00
0.01 0.01 0.01 0.01 0.02 0.01 0.01 0.02 0.02 0.03 0.02 0.01 0.01 0.01 0.00 0.00 0.00 0.00 0.00 0.00 0.00 0.00 0.00 0.01 0.01 0.02 0.02 0.01 0.01 0.01 0.01 0.00 0.00 0.00 0.00 0.00 0.00 0.00
0.01 0.01 0.01 0.01 0.01 0.01 0.01 0.02 0.01 0.01 0.01 0.00 0.01 0.00 0.00 0.00 0.00 0.00 0.00 0.01 0.01 0.01 0.01 0.01 0.02 0.01 0.02 0.01 0.01 0.01 0.00 0.00 0.00 0.00 0.00 0.00 0.00 0.00
0.02 0.01 0.01 0.01 0.01 0.00 0.01 0.00 0.00 0.00 0.00 0.00 0.00 0.00 0.00 0.00 0.00 0.00 0.00 0.00 0.01 0.02 0.02 0.02 0.01 0.01 0.01 0.00 0.00 0.00 0.00 0.00 0.00 0.00 0.00 0.00 0.00 0.00
0.01 0.01 0.01 0.01 0.00 0.00 0.00 0.00 0.00 0.00 0.00 0.01 0.00 0.00 0.00 0.00 0.00 0.00 0.00 0.00 0.01 0.01 0.01 0.01 0.01 0.00 0.00 0.00 0.00 0.00 0.00 0.00 0.00 0.00 0.00 0.00 0.00 0.00
0.00 0.00 0.01 0.00 0.00 0.00 0.00 0.00 0.00 0.00 0.00 0.00 0.00 0.00 0.00 0.00 0.00 0.00 0.00 0.00 0.00 0.00 0.00 0.00 0.00 0.00 0.00 0.00 0.00 0.00 0.00 0.00 0.00 0.00 0.00 0.00 0.00 0.00
0.00 0.00 0.00 0.00 0.00 0.00 0.00 0.00 0.00 0.00 0.00 0.00 0.00 0.00 0.01 0.00 0.00 0.00 0.00 0.00 0.00 0.00 0.00 0.00 0.00 0.00 0.00 0.01 0.00 0.00 0.00 0.00 0.00 0.00 0.00 0.00 0.00 0.00
0.00 0.00 0.00 0.00 0.00 0.00 0.00 0.00 0.00 0.00 0.00 0.00 0.00 0.00 0.00 0.00 0.00 0.00 0.00 0.00 0.00 0.00 0.00 0.00 0.00 0.00 0.00 0.00 0.00 0.00 0.00 0.00 0.00 0.00 0.01 0.01 0.01 0.00
0.00 0.00 0.00 0.00 0.00 0.00 0.00 0.00 0.00 0.00 0.00 0.00 0.00 0.00 0.00 0.00 0.00 0.00 0.00 0.00 0.00 0.00 0.00 0.00 0.00 0.00 0.00 0.00 0.00 0.00 0.00 0.00 0.00 0.00 0.00 0.00 0.00 0.00
MSLP
1016.33 1015.92 1015.59 1015.37 1015.27 1015.28 1015.42 1015.66 1016.00 1016.43 1016.90 1017.39 1017.86 1018.28 1018.61 1018.83 1018.95 1018.96 1018.90 1018.80 1018.70 1018.63 1018.61 1018.68 1018.82 1019.04 1019.32 1019.64 1019.99 1020.35 1020.73 1021.13 1021.53 1021.95 1022.37 1022.79 1023.18 1023.53
1016.12 1015.63 1015.20 1014.88 1014.67 1014.61 1014.70 1014.94 1015.32 1015.82 1016.41 1017.04 1017.66 1018.23 1018.71 1019.07 1019.31 1019.44 1019.47 1019.45 1019.42 1019.42 1019.47 1019.59 1019.78 1020.02 1020.31 1020.62 1020.92 1021.23 1021.52 1021.80 1022.08 1022.37 1022.66 1022.96 1023.24 1023.50
1015.91 1015.35 1014.85 1014.44 1014.14 1014.01 1014.05 1014.27 1014.67 1015.23 1015.91 1016.66 1017.43 1018.15 1018.78 1019.29 1019.66 1019.90 1020.04 1020.11 1020.15 1020.21 1020.30 1020.46 1020.67 1020.92 1021.19 1021.46 1021.72 1021.94 1022.14 1022.32 1022.49 1022.67 1022.85 1023.05 1023.25 1023.44
1015.71 1015.13 1014.59 1014.12 1013.76 1013.57 1013.56 1013.76 1014.16 1014.75 1015.50 1016.34 1017.22 1018.07 1018.84 1019.47 1019.97 1020.32 1020.56 1020.70 1020.81 1020.91 1021.03 1021.19 1021.39 1021.62 1021.86 1022.08 1022.28 1022.44 1022.56 1022.66 1022.74 1022.84 1022.95 1023.08 1023.22 1023.36
1015.58 1015.01 1014.46 1013.97 1013.58 1013.34 1013.29 1013.46 1013.85 1014.45 1015.23 1016.12 1017.07 1018.01 1018.87 1019.61 1020.21 1020.65 1020.96 1021.17 1021.32 1021.44 1021.57 1021.72 1021.89 1022.08 1022.26 1022.44 1022.57 1022.67 1022.74 1022.78 1022.81 1022.86 1022.92 1023.02 1023.13 1023.24
1015.52 1015.00 1014.47 1013.99 1013.60 1013.35 1013.27 1013.41 1013.77 1014.35 1015.11 1016.01 1016.99 1017.96 1018.88 1019.69 1020.35 1020.85 1021.22 1021.47 1021.64 1021.76 1021.88 1022.00 1022.13 1022.26 1022.40 1022.51 1022.60 1022.66 1022.68 1022.69 1022.71 1022.73 1022.78 1022.85 1022.95 1023.04
1015.56 1015.09 1014.62 1014.18 1013.81 1013.56 1013.47 1013.57 1013.89 1014.42 1015.15 1016.01 1016.97 1017.94 1018.86 1019.69 1020.38 1020.92 1021.31 1021.58 1021.76 1021.87 1021.96 1022.04 1022.12 1022.21 1022.29 1022.36 1022.40 1022.43 1022.43 1022.43 1022.43 1022.45 1022.50 1022.56 1022.64 1022.72
1015.69 1015.29 1014.89 1014.51 1014.18 1013.94 1013.85 1013.92 1014.19 1014.66 1015.31 1016.11 1017.00 1017.92 1018.81 1019.62 1020.31 1020.85 1021.25 1021.52 1021.69 1021.79 1021.85 1021.89 1021.93 1021.97 1022.00 1022.03 1022.04 1022.04 1022.04 1022.03 1022.03 1022.04 1022.07 1022.12 1022.18 1022.23
1015.93 1015.59 1015.26 1014.94 1014.66 1014.45 1014.35 1014.40 1014.62 1015.01 1015.58 1016.28 1017.09 1017.93 1018.76 1019.52 1020.17 1020.69 1021.08 1021.35 1021.50 1021.59 1021.63 1021.64 1021.64 1021.63 1021.63 1021.62 1021.60 1021.58 1021.56 1021.53 1021.52 1021.51 1021.52 1021.53 1021.55 1021.54
1016.27 1015.99 1015.71 1015.45 1015.22 1015.04 1014.95 1014.97 1015.14 1015.46 1015.94 1016.54 1017.24 1017.99 1018.73 1019.42 1020.02 1020.50 1020.87 1021.11 1021.26 1021.33 1021.35 1021.34 1021.31 1021.28 1021.24 1021.20 1021.16 1021.11 1021.05 1021.00 1020.94 1020.89 1020.85 1020.80 1020.75 1020.67
1016.71 1016.46 1016.24 1016.02 1015.83 1015.69 1015.60 1015.61 1015.74 1016.00 1016.38 1016.88 1017.47 1018.11 1018.75 1019.36 1019.89 1020.32 1020.66 1020.88 1021.01 1021.07 1021.08 1021.06 1021.01 1020.96 1020.90 1020.83 1020.75 1020.66 1020.56 1020.45 1020.34 1020.22 1020.10 1019.97 1019.83 1019.67
1017.23 1017.01 1016.82 1016.64 1016.49 1016.37 1016.30 1016.30 1016.39 1016.59 1016.89 1017.30 1017.78 1018.31 1018.85 1019.36 1019.82 1020.20 1020.49 1020.69 1020.80 1020.85 1020.85 1020.82 1020.77 1020.69 1020.61 1020.51 1020.39 1020.25 1020.10 1019.92 1019.73 1019.52 1019.31 1019.08 1018.84 1018.58
1017.81 1017.61 1017.43 1017.28 1017.16 1017.05 1016.99 1016.99 1017.06 1017.21 1017.44 1017.76 1018.15 1018.58 1019.02 1019.44 1019.81 1020.12 1020.36 1020.53 1020.63 1020.66 1020.66 1020.62 1020.56 1020.47 1020.36 1020.23 1020.07 1019.87 1019.65 1019.39 1019.11 1018.81 1018.50 1018.17 1017.84 1017.49
1018.41 1018.20 1018.04 1017.90 1017.80 1017.71 1017.66 1017.66 1017.71 1017.82 1018.00 1018.25 1018.55 1018.88 1019.22 1019.54 1019.84 1020.08 1020.26 1020.39 1020.45 1020.48 1020.46 1020.41 1020.34 1020.24 1020.11 1019.94 1019.73 1019.48 1019.19 1018.85 1018.49 1018.10 1017.69 1017.28 1016.87 1016.45
1018.95 1018.75 1018.59 1018.46 1018.36 1018.29 1018.25 1018.25 1018.28 1018.37 1018.51 1018.70 1018.92 1019.16 1019.41 1019.64 1019.85 1020.02 1020.14 1020.22 1020.25 1020.25 1020.22 1020.16 1020.08 1019.96 1019.80 1019.60 1019.35 1019.05 1018.69 1018.28 1017.84 1017.38 1016.90 1016.42 1015.95 1015.50
1019.38 1019.18 1019.02 1018.89 1018.80 1018.74 1018.71 1018.71 1018.74 1018.81 1018.92 1019.05 1019.21 1019.38 1019.54 1019.69 1019.82 1019.91 1019.97 1020.00 1020.00 1019.97 1019.92 1019.84 1019.73 1019.60 1019.42 1019.18 1018.89 1018.54 1018.13 1017.67 1017.17 1016.65 1016.13 1015.61 1015.12 1014.65
1019.65 1019.45 1019.29 1019.17 1019.08 1019.03 1019.00 1019.01 1019.04 1019.10 1019.18 1019.28 1019.38 1019.49 1019.58 1019.66 1019.71 1019.74 1019.73 1019.71 1019.67 1019.60 1019.53 1019.43 1019.30 1019.14 1018.94 1018.67 1018.35 1017.95 1017.50 1017.01 1016.48 1015.93 1015.38 1014.86 1014.37 1013.91
1019.75 1019.55 1019.39 1019.27 1019.18 1019.13 1019.11 1019.12 1019.15 1019.20 1019.27 1019.34 1019.41 1019.47 1019.51 1019.53 1019.52 1019.49 1019.44 1019.37 1019.28 1019.19 1019.08 1018.96 1018.81 1018.62 1018.39 1018.09 1017.73 1017.31 1016.84 1016.32 1015.77 1015.22 1014.68 1014.17 1013.70 1013.27
1019.68 1019.49 1019.33 1019.21 1019.12 1019.07 1019.05 1019.06 1019.09 1019.14 1019.20 1019.26 1019.31 1019.33 1019.34 1019.32 1019.26 1019.19 1019.10 1018.99 1018.88 1018.75 1018.62 1018.47 1018.29 1018.07 1017.81 1017.48 1017.10 1016.65 1016.16 1015.63 1015.08 1014.54 1014.02 1013.54 1013.12 1012.74
1019.49 1019.31 1019.14 1019.01 1018.92 1018.87 1018.84 1018.86 1018.89 1018.95 1019.00 1019.05 1019.09 1019.10 1019.09 1019.04 1018.97 1018.87 1018.75 1018.62 1018.48 1018.33 1018.17 1017.99 1017.78 1017.53 1017.24 1016.89 1016.48 1016.01 1015.51 1014.98 1014.44 1013.92 1013.44 1013.00 1012.62 1012.30
1019.21 1019.02 1018.86 1018.72 1018.62 1018.56 1018.54 1018.55 1018.58 1018.64 1018.70 1018.75 1018.79 1018.80 1018.78 1018.73 1018.65 1018.54 1018.41 1018.27 1018.11 1017.94 1017.76 1017.55 1017.31 1017.03 1016.71 1016.33 1015.90 1015.42 1014.91 1014.39 1013.88 1013.39 1012.95 1012.56 1012.23 1011.96
1018.86 1018.67 1018.50 1018.36 1018.24 1018.17 1018.14 1018.15 1018.19 1018.24 1018.31 1018.37 1018.41 1018.44 1018.42 1018.38 1018.30 1018.20 1018.07 1017.92 1017.76 1017.57 1017.37 1017.14 1016.87 1016.56 1016.21 1015.81 1015.36 1014.88 1014.38 1013.88 1013.40 1012.95 1012.56 1012.22 1011.94 1011.71
1018.46 1018.26 1018.08 1017.92 1017.80 1017.71 1017.68 1017.68 1017.71 1017.77 1017.84 1017.91 1017.97 1018.00 1018.01 1017.98 1017.92 1017.82 1017.70 1017.56 1017.38 1017.19 1016.97 1016.72 1016.43 1016.10 1015.72 1015.31 1014.86 1014.38 1013.90 1013.44 1012.99 1012.60 1012.25 1011.97 1011.74 1011.56
Thickness
5602 5603 5604 5606 5608 5609 5610 5610 5609 5609 5609 5611 5612 5614 5616 5618 5620 5622 5623 5623 5624 5625 5626 5626 5627 5627 5628 5628 5628 5627 5626 5625 5623 5622 5621 5619 5618 5616
5595 5596 5597 5599 5600 5602 5603 5604 5605 5604 5603 5603 5604 5606 5608 5610 5611 5612 5613 5614 5615 5616 5616 5617 5617 5618 5619 5619 5619 5618 5617 5616 5615 5614 5613 5611 5609 5608
5587 5589 5590 5591 5592 5594 5596 5597 5597 5598 5597 5596 5597 5599 5600 5602 5603 5604 5605 5606 5606 5607 5608 5608 5609 5610 5610 5611 5610 5610 5609 5608 5607 5606 5604 5603 5602 5600
5580 5582 5583 5585 5586 5587 5589 5590 5591 5591 5591 5590 5590 5592 5593 5595 5596 5597 5598 5598 5599 5599 5600 5601 5602 5602 5603 5603 5604 5603 5602 5601 5600 5599 5598 5596 5595 5593
5574 5575 5577 5578 5580 5581 5583 5584 5585 5586 5586 5585 5584 5585 5587 5589 5590 5590 5591 5591 5593 5594 5594 5595 5596 5596 5596 5597 5597 5596 5596 5595 5594 5592 5591 5590 5588 5586
5569 5570 5572 5573 5574 5576 5577 5578 5579 5579 5579 5579 5579 5580 5581 5583 5584 5584 5584 5585 5586 5588 5589 5589 5590 5590 5590 5591 5590 5590 5589 5589 5588 5586 5585 5584 5582 5580
5564 5566 5567 5569 5571 5572 5573 5573 5574 5574 5574 5574 5574 5575 5576 5577 5578 5578 5579 5579 5581 5582 5583 5583 5584 5584 5585 5585 5585 5585 5584 5583 5582 5581 5580 5578 5577 5575
5560 5561 5563 5565 5567 5568 5569 5570 5572 5572 5571 5571 5571 5571 5573 5574 5574 5575 5575 5575 5574 5577 5577 5578 5579 5579 5580 5581 5581 5581 5580 5579 5578 5577 5575 5574 5572 5570
5556 5558 5560 5561 5563 5565 5566 5567 5568 5569 5570 5570 5569 5570 5571 5572 5572 5572 5572 5571 5571 5573 5573 5573 5574 5575 5577 5578 5578 5577 5577 5576 5575 5574 5572 5570 5568 5566
5554 5555 5556 5558 5560 5562 5563 5564 5564 5565 5566 5568 5568 5569 5570 5570 5570 5570 5569 5569 5569 5570 5570 5569 5570 5571 5575 5575 5576 5575 5575 5574 5573 5571 5570 5568 5565 5563
5552 5553 5554 5555 5557 5559 5560 5560 5561 5562 5564 5566 5567 5567 5568 5569 5568 5567 5566 5565 5564 5565 5567 5566 5567 5568 5570 5572 5574 5574 5573 5572 5571 5570 5568 5566 5564 5561
5550 5551 5552 5553 5554 5556 5557 5558 5558 5559 5561 5563 5565 5566 5567 5568 5568 5567 5566 5563 5561 5562 5566 5565 5565 5564 5565 5569 5571 5572 5571 5571 5569 5568 5566 5564 5562 5558
5549 5550 5551 5552 5554 5555 5556 5557 5558 5559 5560 5561 5562 5564 5566 5567 5568 5568 5567 5565 5563 5563 5567 5565 5564 5563 5562 5564 5568 5570 5570 5569 5568 5567 5565 5564 5561 5556
5548 5549 5551 5554 5555 5557 5558 5559 5560 5561 5560 5561 5561 5562 5564 5566 5568 5569 5569 5568 5568 5569 5570 5568 5565 5564 5562 5561 5563 5567 5569 5568 5566 5565 5564 5562 5560 5556
5550 5551 5553 5555 5557 5559 5560 5562 5562 5561 5560 5560 5561 5563 5565 5566 5567 5568 5569 5570 5570 5571 5571 5570 5569 5567 5564 5562 5562 5563 5564 5566 5566 5564 5562 5560 5557 5554
5552 5554 5556 5558 5559 5561 5563 5564 5564 5563 5562 5562 5563 5565 5566 5566 5567 5568 5568 5569 5569 5571 5574 5573 5572 5569 5566 5566 5564 5563 5563 5561 5564 5563 5560 5558 5556 5553
5554 5556 5558 5559 5560 5562 5564 5565 5566 5566 5565 5565 5564 5565 5566 5567 5568 5569 5568 5568 5567 5568 5570 5574 5574 5572 5570 5568 5565 5565 5564 5563 5563 5561 5557 5554 5555 5552
5557 5557 5559 5560 5562 5564 5565 5566 5568 5568 5568 5568 5568 5567 5568 5569 5569 5570 5569 5568 5568 5569 5570 5571 5571 5570 5569 5570 5569 5566 5564 5562 5562 5559 5554 5550 5550 5551
5560 5560 5562 5563 5566 5567 5568 5569 5570 5571 5571 5571 5571 5571 5571 5571 5571 5571 5571 5570 5570 5570 5571 5570 5568 5566 5563 5564 5569 5568 5563 5562 5559 5556 5553 5549 5546 5548
5564 5565 5567 5569 5570 5572 5572 5573 5574 5574 5574 5574 5574 5574 5574 5573 5573 5572 5572 5571 5571 5570 5570 5570 5568 5566 5563 5563 5564 5566 5565 5560 5556 5553 5552 5549 5545 5545
5571 5572 5573 5575 5576 5576 5577 5577 5577 5576 5577 5576 5577 5577 5576 5575 5574 5574 5573 5573 5572 5570 5569 5570 5572 5571 5567 5563 5560 5561 5563 5561 5557 5552 5548 5543 5539 5536
5576 5577 5579 5581 5581 5581 5581 5580 5580 5580 5579 5579 5579 5579 5579 5578 5577 5576 5575 5573 5572 5571 5571 5571 5572 5569 5565 5561 5559 5558 5558 5558 5556 5552 5547 5542 5535 5530
5583 5584 5585 5585 5586 5585 5585 5584 5584 5583 5583 5582 5581 5581 5580 5579 5579 5578 5576 5575 5573 5572 5570 5570 5569 5566 5563 5560 5557 5555 5554 5552 5549 5546 5544 5542 5537 5532